Time,TemperatureF,DewpointF,PressureIn,WindDirection,WindDirectionDegrees,WindSpeedMPH,WindSpeedGustMPH,Humidity,HourlyPrecipIn,Conditions,Clouds,dailyrainin,SolarRadiationWatts/m^2,SoftwareType,DateUTC
2013-03-31 00:02:00,72.0,57.0,-100.00,ESE,114,9.0,18.0,60,0.00,,,-99.99,1.000000,,2013-03-31 05:02:00,
2013-03-31 00:32:00,71.0,58.0,-100.00,SSE,147,9.0,13.0,63,0.00,,,0.00,1.000000,,2013-03-31 05:32:00,
2013-03-31 00:42:00,71.0,58.0,-100.00,SSE,147,9.0,13.0,63,0.00,,,0.00,1.000000,,2013-03-31 05:42:00,
2013-03-31 00:53:00,71.0,58.0,-100.00,SSE,147,9.0,13.0,63,0.00,,,0.00,1.000000,,2013-03-31 05:53:00,
2013-03-31 01:02:00,71.0,58.0,-100.00,SSE,147,9.0,13.0,63,0.00,,,0.00,1.000000,,2013-03-31 06:02:00,
2013-03-31 01:33:00,68.0,57.0,-100.00,East,98,5.0,13.0,67,0.00,,,0.00,1.000000,,2013-03-31 06:33:00,
2013-03-31 01:42:00,68.0,57.0,-100.00,East,98,5.0,13.0,67,0.00,,,0.00,1.000000,,2013-03-31 06:42:00,
2013-03-31 01:52:00,68.0,57.0,-100.00,East,98,5.0,13.0,67,0.00,,,0.00,1.000000,,2013-03-31 06:52:00,
2013-03-31 02:02:00,68.0,57.0,-100.00,East,98,5.0,13.0,67,0.00,,,0.00,1.000000,,2013-03-31 07:02:00,
2013-03-31 03:32:00,67.0,56.0,-100.00,SSE,150,5.0,7.0,68,-99.99,,,0.00,1.000000,,2013-03-31 08:32:00,
2013-03-31 03:42:00,67.0,56.0,-100.00,SSE,150,5.0,7.0,68,-99.99,,,0.00,1.000000,,2013-03-31 08:42:00,
2013-03-31 03:52:00,67.0,56.0,-100.00,SSE,150,5.0,7.0,68,-99.99,,,0.00,1.000000,,2013-03-31 08:52:00,
2013-03-31 04:02:00,67.0,56.0,-100.00,SSE,150,5.0,7.0,68,-99.99,,,0.00,1.000000,,2013-03-31 09:02:00,
2013-03-31 04:33:00,67.0,57.0,-100.00,South,186,2.0,6.0,70,0.00,,,-99.99,1.000000,,2013-03-31 09:33:00,
2013-03-31 04:43:00,67.0,57.0,-100.00,South,186,2.0,6.0,70,0.00,,,-99.99,1.000000,,2013-03-31 09:43:00,
2013-03-31 04:53:00,67.0,57.0,-100.00,South,186,2.0,6.0,70,0.00,,,-99.99,1.000000,,2013-03-31 09:53:00,
2013-03-31 05:03:00,67.0,57.0,-100.00,South,186,2.0,6.0,70,0.00,,,-99.99,1.000000,,2013-03-31 10:03:00,
2013-03-31 05:33:00,67.0,58.0,-100.00,WNW,286,6.0,9.0,74,0.00,,,0.00,1.000000,,2013-03-31 10:33:00,
2013-03-31 05:42:00,67.0,58.0,-100.00,WNW,286,6.0,9.0,74,0.00,,,0.00,1.000000,,2013-03-31 10:42:00,
2013-03-31 05:53:00,67.0,58.0,-100.00,WNW,286,6.0,9.0,74,0.00,,,0.00,1.000000,,2013-03-31 10:53:00,
2013-03-31 06:02:00,67.0,58.0,-100.00,WNW,286,6.0,9.0,74,0.00,,,0.00,1.000000,,2013-03-31 11:02:00,
2013-03-31 06:33:00,67.0,58.0,-100.00,WNW,289,3.0,6.0,72,0.00,,,0.00,1.000000,,2013-03-31 11:33:00,
2013-03-31 06:42:00,67.0,58.0,-100.00,WNW,289,3.0,6.0,72,0.00,,,0.00,1.000000,,2013-03-31 11:42:00,
2013-03-31 06:53:00,67.0,58.0,-100.00,WNW,289,3.0,6.0,72,0.00,,,0.00,1.000000,,2013-03-31 11:53:00,
2013-03-31 07:03:00,67.0,58.0,-100.00,WNW,289,3.0,6.0,72,0.00,,,0.00,1.000000,,2013-03-31 12:03:00,
2013-03-31 08:32:00,64.0,57.0,-100.00,SE,124,0.0,5.0,78,-99.99,,,0.00,5.000000,,2013-03-31 13:32:00,
2013-03-31 08:42:00,64.0,57.0,-100.00,SE,124,0.0,5.0,78,-99.99,,,0.00,5.000000,,2013-03-31 13:42:00,
2013-03-31 08:53:00,64.0,57.0,-100.00,SE,124,0.0,5.0,78,-99.99,,,0.00,5.000000,,2013-03-31 13:53:00,
2013-03-31 09:02:00,64.0,57.0,-100.00,SE,124,0.0,5.0,78,-99.99,,,0.00,5.000000,,2013-03-31 14:02:00,
2013-03-31 09:33:00,69.0,60.0,-100.00,South,190,2.0,4.0,73,0.00,,,-99.99,72.000000,,2013-03-31 14:33:00,
2013-03-31 09:43:00,69.0,60.0,-100.00,South,190,2.0,4.0,73,0.00,,,-99.99,72.000000,,2013-03-31 14:43:00,
2013-03-31 09:52:00,69.0,60.0,-100.00,South,190,2.0,4.0,73,0.00,,,-99.99,72.000000,,2013-03-31 14:52:00,
2013-03-31 10:03:00,69.0,60.0,-100.00,South,190,2.0,4.0,73,0.00,,,-99.99,72.000000,,2013-03-31 15:03:00,
2013-03-31 10:34:00,72.0,60.0,-100.00,WNW,285,6.0,24.0,66,0.00,,,0.00,119.000000,,2013-03-31 15:34:00,
2013-03-31 10:43:00,72.0,60.0,-100.00,WNW,285,6.0,24.0,66,0.00,,,0.00,119.000000,,2013-03-31 15:43:00,
2013-03-31 10:54:00,72.0,60.0,-100.00,WNW,285,6.0,24.0,66,0.00,,,0.00,119.000000,,2013-03-31 15:54:00,
2013-03-31 11:03:00,72.0,60.0,-100.00,WNW,285,6.0,24.0,66,0.00,,,0.00,119.000000,,2013-03-31 16:03:00,
2013-03-31 11:34:00,70.0,56.0,-100.00,NNE,12,17.0,25.0,61,0.00,,,0.00,464.000000,,2013-03-31 16:34:00,
2013-03-31 11:43:00,70.0,56.0,-100.00,NNE,12,17.0,25.0,61,0.00,,,0.00,464.000000,,2013-03-31 16:43:00,
2013-03-31 11:53:00,70.0,56.0,-100.00,NNE,12,17.0,25.0,61,0.00,,,0.00,464.000000,,2013-03-31 16:53:00,
2013-03-31 12:03:00,70.0,56.0,-100.00,NNE,12,17.0,25.0,61,0.00,,,0.00,464.000000,,2013-03-31 17:03:00,
2013-03-31 12:33:00,68.0,56.0,-100.00,NE,40,15.0,23.0,65,0.00,,,0.00,253.000000,,2013-03-31 17:33:00,
2013-03-31 12:43:00,68.0,56.0,-100.00,NE,40,15.0,23.0,65,0.00,,,0.00,253.000000,,2013-03-31 17:43:00,
2013-03-31 12:52:00,68.0,56.0,-100.00,NE,40,15.0,23.0,65,0.00,,,0.00,253.000000,,2013-03-31 17:52:00,
2013-03-31 13:02:00,68.0,56.0,-100.00,NE,40,15.0,23.0,65,0.00,,,0.00,253.000000,,2013-03-31 18:02:00,
2013-03-31 13:33:00,74.0,56.0,-100.00,ENE,62,15.0,24.0,54,0.00,,,0.00,619.000000,,2013-03-31 18:33:00,
2013-03-31 13:42:00,74.0,56.0,-100.00,ENE,62,15.0,24.0,54,0.00,,,0.00,619.000000,,2013-03-31 18:42:00,
2013-03-31 13:53:00,74.0,56.0,-100.00,ENE,62,15.0,24.0,54,0.00,,,0.00,619.000000,,2013-03-31 18:53:00,
2013-03-31 14:03:00,74.0,56.0,-100.00,ENE,62,15.0,24.0,54,0.00,,,0.00,619.000000,,2013-03-31 19:03:00,
2013-03-31 14:33:00,78.0,55.0,-100.00,NE,55,13.0,23.0,45,0.00,,,-99.99,825.000000,,2013-03-31 19:33:00,
2013-03-31 14:43:00,78.0,55.0,-100.00,NE,55,13.0,23.0,45,0.00,,,-99.99,825.000000,,2013-03-31 19:43:00,
2013-03-31 14:54:00,78.0,55.0,-100.00,NE,55,13.0,23.0,45,0.00,,,-99.99,825.000000,,2013-03-31 19:54:00,
2013-03-31 15:02:00,78.0,55.0,-100.00,NE,55,13.0,23.0,45,0.00,,,-99.99,825.000000,,2013-03-31 20:02:00,
2013-03-31 15:34:00,79.0,52.0,-100.00,ENE,69,13.0,22.0,39,0.00,,,0.00,813.000000,,2013-03-31 20:34:00,
2013-03-31 15:43:00,79.0,52.0,-100.00,ENE,69,13.0,22.0,39,0.00,,,0.00,813.000000,,2013-03-31 20:43:00,
2013-03-31 15:53:00,79.0,52.0,-100.00,ENE,69,13.0,22.0,39,0.00,,,0.00,813.000000,,2013-03-31 20:53:00,
2013-03-31 16:02:00,79.0,52.0,-100.00,ENE,69,13.0,22.0,39,0.00,,,0.00,813.000000,,2013-03-31 21:02:00,
2013-03-31 16:34:00,80.0,51.0,-100.00,ENE,64,11.0,21.0,36,0.00,,,0.00,719.000000,,2013-03-31 21:34:00,
2013-03-31 16:43:00,80.0,51.0,-100.00,ENE,64,11.0,21.0,36,0.00,,,0.00,719.000000,,2013-03-31 21:43:00,
2013-03-31 16:54:00,80.0,51.0,-100.00,ENE,64,11.0,21.0,36,0.00,,,0.00,719.000000,,2013-03-31 21:54:00,
2013-03-31 17:03:00,80.0,51.0,-100.00,ENE,64,11.0,21.0,36,0.00,,,0.00,719.000000,,2013-03-31 22:03:00,
2013-03-31 17:33:00,81.0,50.0,-100.00,NE,44,9.0,20.0,34,0.00,,,0.00,592.000000,,2013-03-31 22:33:00,
2013-03-31 17:43:00,81.0,50.0,-100.00,NE,44,9.0,20.0,34,0.00,,,0.00,592.000000,,2013-03-31 22:43:00,
2013-03-31 17:53:00,81.0,50.0,-100.00,NE,44,9.0,20.0,34,0.00,,,0.00,592.000000,,2013-03-31 22:53:00,
2013-03-31 18:03:00,81.0,50.0,-100.00,NE,44,9.0,20.0,34,0.00,,,0.00,592.000000,,2013-03-31 23:03:00,
2013-03-31 18:33:00,81.0,49.0,-100.00,ENE,67,9.0,18.0,33,0.00,,,0.00,412.000000,,2013-03-31 23:33:00,
2013-03-31 18:43:00,81.0,49.0,-100.00,ENE,67,9.0,18.0,33,0.00,,,0.00,412.000000,,2013-03-31 23:43:00,
2013-03-31 18:53:00,81.0,49.0,-100.00,ENE,67,9.0,18.0,33,0.00,,,0.00,412.000000,,2013-03-31 23:53:00,
2013-03-31 19:02:00,81.0,49.0,-100.00,ENE,67,9.0,18.0,33,0.00,,,0.00,412.000000,,2013-04-01 00:02:00,
2013-03-31 19:33:00,79.0,48.0,-100.00,ENE,59,10.0,17.0,34,0.00,,,0.00,123.000000,,2013-04-01 00:33:00,
2013-03-31 19:43:00,79.0,48.0,-100.00,ENE,59,10.0,17.0,34,0.00,,,0.00,123.000000,,2013-04-01 00:43:00,
2013-03-31 19:53:00,79.0,48.0,-100.00,ENE,59,10.0,17.0,34,0.00,,,0.00,123.000000,,2013-04-01 00:53:00,
2013-03-31 20:03:00,79.0,48.0,-100.00,ENE,59,10.0,17.0,34,0.00,,,0.00,123.000000,,2013-04-01 01:03:00,
2013-03-31 20:33:00,74.0,47.0,-100.00,NE,56,7.0,13.0,38,0.00,,,0.00,35.000000,,2013-04-01 01:33:00,
2013-03-31 20:43:00,74.0,47.0,-100.00,NE,56,7.0,13.0,38,0.00,,,0.00,35.000000,,2013-04-01 01:43:00,
2013-03-31 20:53:00,74.0,47.0,-100.00,NE,56,7.0,13.0,38,0.00,,,0.00,35.000000,,2013-04-01 01:53:00,
2013-03-31 21:03:00,74.0,47.0,-100.00,NE,56,7.0,13.0,38,0.00,,,0.00,35.000000,,2013-04-01 02:03:00,
2013-03-31 21:33:00,71.0,47.0,-100.00,NE,50,8.0,12.0,43,0.00,,,0.00,1.000000,,2013-04-01 02:33:00,
2013-03-31 21:43:00,71.0,47.0,-100.00,NE,50,8.0,12.0,43,0.00,,,0.00,1.000000,,2013-04-01 02:43:00,
2013-03-31 21:53:00,71.0,47.0,-100.00,NE,50,8.0,12.0,43,0.00,,,0.00,1.000000,,2013-04-01 02:53:00,
2013-03-31 22:03:00,71.0,47.0,-100.00,NE,50,8.0,12.0,43,0.00,,,0.00,1.000000,,2013-04-01 03:03:00,
2013-03-31 22:35:00,69.0,48.0,-100.00,ENE,58,9.0,12.0,48,0.00,,,0.00,1.000000,,2013-04-01 03:35:00,
2013-03-31 22:43:00,69.0,48.0,-100.00,ENE,58,9.0,12.0,48,0.00,,,0.00,1.000000,,2013-04-01 03:43:00,
2013-03-31 22:53:00,69.0,48.0,-100.00,ENE,58,9.0,12.0,48,0.00,,,0.00,1.000000,,2013-04-01 03:53:00,
2013-03-31 23:03:00,69.0,48.0,-100.00,ENE,58,9.0,12.0,48,0.00,,,0.00,1.000000,,2013-04-01 04:03:00,
2013-03-31 23:33:00,67.0,49.0,-100.00,ENE,74,7.0,11.0,53,0.00,,,0.00,1.000000,,2013-04-01 04:33:00,
2013-03-31 23:43:00,67.0,49.0,-100.00,ENE,74,7.0,11.0,53,0.00,,,0.00,1.000000,,2013-04-01 04:43:00,
2013-03-31 23:53:00,67.0,49.0,-100.00,ENE,74,7.0,11.0,53,0.00,,,0.00,1.000000,,2013-04-01 04:53:00,